ROMMA est une association bénévole à but non lucratif. Votre soutien est indispensable : ADHERER à ROMMA ou FAIRE un DON

Saint-Martin-d'Hères - (38, Isère)

Vallée du Grésivaudan (220 m)   Longitude: 05° 45' 05" E   Latitude: 45° 10' 02" N Station partenaire n°4
 

Détail journalier du     <<     >>

Température Precipitation Humidité Pression Vent Dir Rafale Dir. rafale Ensol.
Heure (°C) (mm) (%) (hPa) (km/h) (km/h) (min)
01:00 12.3086102302O0
02:00 12.4085102403O0
03:00 11.6088102402SSO0
04:00 11.3090102400---0
05:00 10.5092102400---0
06:00 9.8093102400---0
07:00 10.1094102400---0
08:00 9.7095102400---0
09:00 9.9095102400---0
10:00 10.8095102400---0
11:00 14.1088102400---20
12:00 18.1068102300---60
13:00 19.6061102300---60
14:00 21.7055102200---60
15:00 22.805210213NNO15N60
16:00 24.004910212NNO11NO60
17:00 24.704910201NNO16NO60
18:00 22.305410202NO15NO30
19:00 19.50671021010NNO0
20:00 16.8076102100---0
21:00 15.8080102200---0
22:00 14.9085102200---0
23:00 13.8088102300---0
minuit 13.1091102300---0

Graphique du 04-10-2018

 

Serveur OMMA